Starlink 2624

operational
NORAD ID: 48358 Int'l Des: 2021-038 Owner: SPXS Country: US Constellation: starlink
LEOCIRCULARSTARLINK_TYPE

About Starlink 2624

Description loading...

Live Position

Loading 3D Globe...

Upcoming Passes

Altitude History

Altitude vs Time

uPlot chart will show altitude changes over time

Two-Line Element Set

1 48358U 21038F 25296.11298152 .00010467 00000-0 72007-3 0 9992
2 48358 53.0533 259.2258 0001571 82.3524 277.7643 15.06422586246287
Epoch: Oct 23, 2025 • Age: 28 hours

Current Status

Altitude 548.9 km
Velocity 7.59 km/s
Sub-Earth Point 35.14°N, 86.22°W
Launch Date May 4, 2021
Age 4.4 years
Type internet

Technical Details

Classification Payload
Mass 260.00 kg
Dry Mass 248.00 kg
Total Mass 260.00 kg
Length 0.20 m
Diameter 2.80 m
Span 9.00 m
Shape Box + pan
Manufacturer SPXS
Bus Type Starlink
Phase Status In Orbit
Owner/State SPXS/US

Large Constellations

Loading constellations...